Nueva Hesperides International Airport

Jump to: basic info | weather | frequencies | runways | comments

Related pages: nearby airports | nearby navaids | notams | map

Basic information (top)

Codes: STY SUSO
Location: lon -31.438499, lat -57.985298, elev 187 ft / 57 m msl
Status: medium_airport

Weather (top)

Current conditions (rec'd 2014/08/29 00:00Z):

SUSO 290000Z 13006KT CAVOK 10/03 Q1020

Airport forecast (rec'd 2014/08/27 00:30Z):

TAF SUSO 272330Z 2800/2824 16005KT 9999 FEW020 TX16/2818Z TN05/2810Z

Frequencies (top)

Verify before use: may be inaccurate or out of date.

RDO: 286 MHz (SALTO RDO)
TWR: 118.8 MHz (SALTO TWR)

Runways (top)

05/23: 5,210 x 148 ft (1,588 x 45 m) — paved — lighted

13/31: 2,461 x 164 ft (750 x 50 m) — grass — not lighted

Latest comments (top)

No comments yet for Nueva Hesperides International Airport

More... (top)

See also NOTAMs and nearby airports and navaids, or visit the Nueva Hesperides International Airport page at the main OurAirports website..